Date String (YYYY-MM-DD hh:mm:ss) UTC,Instrument flags,Ambient pressure (hPa),Sample flow (lpm),Bypass flow (lpm),Sample temperature (°C),Ambient temperature (°C),ASC tube jacket temperature (°C),LED temperature (°C),Box temperature (°C),Sample RH (%),Span deviation,Mass concentration (μg/m³),Mass concentration (μg/m³),Mass concentration (μg/m³)
DateTimeUTC,F1_M11,P_M11,Q1_M11,Q2_M11,T1_M11,T2_M11,T3_M11,T4_M11,T5_M11,U1_M11,ZSPAN_M11,X0_M11,X2_M11,X1_M11
2022-08-08 03:00:00,,0833.7,5.00,0.00,33.3,28.8,00.0,40.9,33.0,34.7,0002.6,0011.18,0005.99,0004.56
2022-08-08 03:01:00,,0833.6,5.00,0.00,33.3,28.9,00.0,40.9,33.0,34.7,0002.3,0010.94,0005.91,0004.53
2022-08-08 03:02:00,,0833.7,4.99,0.00,33.3,29.0,00.0,41.0,33.0,34.8,0000.0,0010.82,0005.83,0004.50
2022-08-08 03:03:00,,0833.6,5.00,0.00,33.2,29.0,00.0,41.0,33.0,34.9,0000.0,0010.49,0005.70,0004.45
2022-08-08 03:04:00,,0833.6,5.00,0.00,33.1,28.7,00.0,41.0,32.9,35.0,0000.0,0010.49,0005.68,0004.40
2022-08-08 03:05:00,,0833.6,5.01,0.00,33.1,28.1,00.0,40.9,32.8,35.3,0000.0,0010.52,0005.68,0004.40
2022-08-08 03:06:00,,0833.6,4.99,0.00,33.2,27.8,00.0,40.9,32.8,34.7,0000.0,0010.38,0005.65,0004.40
2022-08-08 03:07:00,,0833.6,5.00,0.00,33.1,27.8,00.0,40.9,32.7,34.7,0000.0,0010.29,0005.61,0004.38
2022-08-08 03:08:00,,0833.6,4.99,0.00,33.1,27.9,00.0,40.8,32.7,34.7,0000.0,0010.35,0005.64,0004.38
2022-08-08 03:09:00,,0833.7,4.99,0.00,33.0,28.0,00.0,40.8,32.6,34.5,0000.0,0010.26,0005.61,0004.37
2022-08-08 03:10:00,,0833.7,5.01,0.00,32.9,28.2,00.0,40.8,32.6,34.8,0000.0,0009.89,0005.50,0004.35
2022-08-08 03:11:00,,0833.7,4.99,0.00,32.8,28.3,00.0,40.8,32.6,34.8,0000.0,0009.59,0005.39,0004.32
2022-08-08 03:12:00,,0833.8,5.01,0.00,32.7,28.5,00.0,40.8,32.7,34.7,0000.0,0009.24,0005.26,0004.27
2022-08-08 03:13:00,,0833.8,4.99,0.00,32.7,28.6,00.0,40.8,32.7,34.4,0000.0,0008.94,0005.16,0004.23
2022-08-08 03:14:00,,0833.8,5.00,0.00,32.6,28.7,00.0,40.8,32.7,34.4,0000.0,0008.81,0005.08,0004.20
2022-08-08 03:15:00,,0833.8,5.01,0.00,32.5,28.8,00.0,40.8,32.7,34.5,0000.0,0008.49,0004.93,0004.15
2022-08-08 03:16:00,,0833.8,4.99,0.00,32.5,28.9,00.0,40.7,32.7,34.9,0000.0,0008.25,0004.83,0004.09
2022-08-08 03:17:00,,0833.7,5.00,0.00,32.4,29.0,00.0,40.7,32.8,35.2,0000.0,0008.21,0004.80,0004.06
2022-08-08 03:18:00,,0833.7,5.00,0.00,32.6,29.0,00.0,40.7,32.9,35.1,0000.0,0008.44,0004.79,0004.04
2022-08-08 03:19:00,,0833.9,5.01,0.00,32.8,28.9,00.0,40.7,33.0,34.7,0000.0,0008.84,0004.74,0004.01
2022-08-08 03:20:00,,0833.9,5.01,0.00,33.0,28.3,00.0,40.6,32.8,34.6,0000.0,0008.58,0004.61,0003.96
2022-08-08 03:21:00,,0833.8,4.99,0.00,32.9,27.5,00.0,40.6,32.6,34.3,0000.0,0008.63,0004.60,0003.94
2022-08-08 03:22:00,,0833.9,4.99,0.00,32.8,27.3,00.0,40.6,32.5,34.4,0000.0,0008.62,0004.58,0003.92
2022-08-08 03:23:00,,0833.9,5.00,0.00,32.7,27.3,00.0,40.6,32.4,34.6,0000.0,0008.57,0004.55,0003.90
2022-08-08 03:24:00,,0833.9,5.01,0.00,32.6,27.5,00.0,40.5,32.4,34.9,0000.0,0008.55,0004.54,0003.89
2022-08-08 03:25:00,,0834.0,5.01,0.00,32.4,27.6,00.0,40.5,32.3,34.8,0000.0,0008.45,0004.52,0003.86
2022-08-08 03:26:00,,0834.0,4.99,0.00,32.3,27.8,00.0,40.5,32.3,34.5,0000.0,0008.39,0004.48,0003.83
2022-08-08 03:27:00,,0834.0,5.01,0.00,32.2,28.0,00.0,40.5,32.3,34.8,0000.0,0008.27,0004.42,0003.81
2022-08-08 03:28:00,,0834.0,5.00,0.00,32.2,28.1,00.0,40.5,32.3,34.6,0000.0,0008.11,0004.34,0003.78
2022-08-08 03:29:00,,0834.0,5.00,0.00,32.1,28.3,00.0,40.4,32.4,35.0,0000.0,0007.87,0004.30,0003.78
2022-08-08 03:30:00,,0834.1,5.01,0.00,32.2,28.4,00.0,40.4,32.5,35.1,0000.0,0007.05,0004.25,0003.76
2022-08-08 03:31:00,,0834.0,4.99,0.00,32.3,28.5,00.0,40.4,32.6,34.8,0000.0,0007.24,0004.29,0003.76
2022-08-08 03:32:00,,0834.0,5.00,0.00,32.4,28.6,00.0,40.4,32.6,34.6,0000.0,0007.34,0004.27,0003.74
2022-08-08 03:33:00,,0834.0,5.00,0.00,32.4,28.7,00.0,40.4,32.6,34.4,0000.0,0007.81,0004.24,0003.73
2022-08-08 03:34:00,,0834.0,5.00,0.00,32.4,28.8,00.0,40.4,32.6,34.6,0000.0,0007.88,0004.26,0003.73
2022-08-08 03:35:00,,0834.0,5.00,0.00,32.3,28.8,00.0,40.4,32.6,34.7,0000.0,0007.85,0004.24,0003.71
2022-08-08 03:36:00,,0834.0,5.00,0.00,32.3,28.9,00.0,40.4,32.6,35.0,0000.0,0007.79,0004.21,0003.70
2022-08-08 03:37:00,,0834.0,5.00,0.00,32.3,29.0,00.0,40.4,32.7,35.5,0000.0,0007.87,0004.21,0003.70
2022-08-08 03:38:00,,0834.0,4.99,0.00,32.6,29.0,00.0,40.4,32.9,34.9,0000.0,0008.04,0004.25,0003.71
2022-08-08 03:39:00,,0834.0,4.99,0.00,32.7,29.0,00.0,40.4,32.9,34.5,0000.0,0008.20,0004.29,0003.71
2022-08-08 03:40:00,,0834.0,5.00,0.00,32.8,28.5,00.0,40.4,32.8,34.1,0000.0,0008.21,0004.28,0003.69
2022-08-08 03:41:00,,0834.0,4.99,0.00,32.8,28.0,00.0,40.4,32.6,34.2,0000.0,0008.27,0004.29,0003.67
2022-08-08 03:42:00,,0834.0,5.01,0.00,32.7,27.8,00.0,40.4,32.5,34.5,0000.0,0008.35,0004.30,0003.66
2022-08-08 03:43:00,,0833.9,4.99,0.00,32.5,27.9,00.0,40.4,32.4,34.8,0000.0,0008.35,0004.29,0003.66
2022-08-08 03:44:00,,0833.9,5.00,0.00,32.5,27.9,00.0,40.4,32.4,35.1,0000.0,0007.72,0004.30,0003.67
2022-08-08 03:45:00,,0833.9,5.00,0.00,32.5,28.1,00.0,40.4,32.5,35.2,0000.0,0007.73,0004.30,0003.67
2022-08-08 03:46:00,,0833.9,5.01,0.00,32.7,28.2,00.0,40.4,32.7,34.7,0000.0,0007.70,0004.30,0003.69
2022-08-08 03:47:00,,0833.9,5.00,0.00,32.9,28.3,00.0,40.4,32.7,34.4,0000.0,0007.82,0004.35,0003.70
2022-08-08 03:48:00,,0834.0,5.00,0.00,32.9,28.4,00.0,40.4,32.7,34.4,0000.0,0007.85,0004.40,0003.71
2022-08-08 03:49:00,,0834.0,5.01,0.00,32.9,28.5,00.0,40.5,32.7,34.5,0000.0,0007.81,0004.40,0003.71
2022-08-08 03:50:00,,0834.0,5.00,0.00,32.8,28.6,00.0,40.5,32.7,34.5,0000.0,0007.71,0004.40,0003.73
2022-08-08 03:51:00,,0834.0,4.99,0.00,32.7,28.7,00.0,40.5,32.7,34.6,0000.0,0007.82,0004.43,0003.75
2022-08-08 03:52:00,,0834.0,5.01,0.00,32.7,28.8,00.0,40.6,32.7,34.7,0000.0,0007.77,0004.43,0003.77
2022-08-08 03:53:00,,0834.0,5.00,0.00,32.6,28.9,00.0,40.6,32.7,34.6,0000.0,0007.59,0004.40,0003.80
2022-08-08 03:54:00,,0834.0,5.01,0.00,32.6,29.0,00.0,40.6,32.7,34.8,0000.0,0007.56,0004.42,0003.84
2022-08-08 03:55:00,,0834.0,5.00,0.00,32.5,29.0,00.0,40.6,32.7,35.2,0000.0,0007.64,0004.46,0003.86
2022-08-08 03:56:00,,0834.0,5.01,0.00,32.7,29.0,00.0,40.6,32.9,35.0,0000.0,0007.58,0004.44,0003.86
2022-08-08 03:57:00,,0834.0,4.98,0.00,32.9,28.5,00.0,40.6,32.8,34.4,0000.0,0007.65,0004.47,0003.87
2022-08-08 03:58:00,,0834.0,5.00,0.00,32.9,27.8,00.0,40.5,32.6,34.4,0000.0,0007.70,0004.48,0003.88
2022-08-08 03:59:00,,0834.0,5.00,0.00,32.8,27.4,00.0,40.5,32.5,34.5,0000.0,0007.68,0004.46,0003.89
